#timestamp,LO_Frequency,Hit,StdDev 
1581148815.8,286047005.7,N
1581148835.7,286047005.5,N
1581148855.5,286047003.1,N
1581148875.3,286047003.0,N
1581148895.2,286047005.3,N
1581148915.0,286047003.0,N
1581148915.9,286047003.0,N
1581148935.7,286047003.9,N
1581148955.6,286047003.3,N
1581148975.4,286047005.9,N
1581148995.3,286047005.5,N
1581149015.1,286047005.9,N
1581149016.0,286047005.9,N
1581149035.8,286047004.8,N
1581149055.7,286047005.0,N
1581149075.5,286047005.9,N
1581149095.3,286047005.1,N
1581149115.2,286047005.8,N
1581149135.0,286047005.7,N
1581149135.9,286047005.7,N
1581149155.8,286047005.1,N
1581149175.6,286047005.7,N
1581149195.4,286047003.0,N
1581149215.3,286047005.7,N
1581149235.1,286047007.4,Y
1581149255.9,286047001.9,P
1581149275.7,286047004.1,N
1581149295.5,286047003.4,N
1581149315.4,286047003.3,Y
1581149335.2,286047001.0,P
1581149355.0,286047003.6,N
1581149355.9,286047003.6,N
1581149375.8,286047001.3,N
1581149395.6,286047001.5,N
1581149415.5,286047002.1,N
1581149435.3,286047000.4,N
1581149455.1,286047000.3,N
1581149475.9,286046998.7,N
1581149495.7,286046999.7,N
1581149515.6,286047001.9,N
1581149535.4,286046999.8,N
1581149555.2,286047002.4,N
1581149575.1,286047002.6,N
1581149576.0,286047002.6,N
1581149595.8,286047002.1,N
1581149615.6,286047001.3,N
1581149635.5,286047005.9,Y
1581149655.3,286047003.0,P
1581149675.2,286047004.4,P
1581149695.9,286047002.4,N
1581149715.7,286047002.8,N
1581149735.6,286047003.7,Y
1581149755.4,286047002.8,P
1581149775.2,286047004.0,P
1581149795.1,286047002.3,P
1581149796.0,286047002.3,Y
1581149815.8,286047000.5,P
1581149835.7,286046999.5,N
1581149855.5,286046996.7,N
1581149875.3,286046998.8,N
1581149895.2,286046999.4,N
1581149915.0,286046999.3,N
1581149915.9,286046999.3,N
1581149935.8,286046998.8,N
1581149955.6,286046998.6,N
1581149975.4,286046999.4,N
1581149995.3,286046998.7,N
1581150015.1,286046999.0,N
1581150035.9,286046999.7,N
1581150055.7,286047001.9,N
1581150075.5,286047011.9,Y
1581150095.4,286047000.0,P
1581150115.2,286046999.7,N
1581150135.1,286047002.8,P
1581150136.0,286047002.8,N
1581150155.8,286047002.7,N
1581150175.6,286047000.3,N
1581150195.5,286047000.0,N
1581150215.3,286047001.8,N
1581150235.1,286047002.6,N
1581150255.9,286047000.4,N
1581150275.7,286047000.3,N
1581150295.6,286046999.7,N
1581150315.4,286047000.3,N
1581150335.2,286046999.7,N
1581150355.1,286047000.5,N
1581150356.0,286047000.5,N
1581150375.8,286047000.3,N
1581150395.6,286047000.6,N
1581150415.5,286047001.2,N
1581150435.3,286046999.7,N
1581150455.2,286047002.3,N
1581150475.9,286047002.5,N
1581150495.7,286047001.1,N
1581150515.6,286047000.9,N
1581150535.4,286046998.8,N
1581150555.2,286047000.7,N
1581150575.1,286047000.3,N
1581150576.0,286047000.3,N
1581150595.8,286047000.2,N
1581150615.7,286046999.0,N
1581150635.5,286046996.9,N
1581150655.3,286046998.9,N
1581150675.2,286047000.1,N
1581150695.0,286047002.1,N
1581150695.9,286047002.1,N
1581150715.8,286047002.6,N
1581150735.6,286047002.5,N
1581150755.4,286046999.8,N
1581150775.3,286047002.5,N
1581150795.1,286047000.9,N
1581150815.9,286047000.5,N
1581150835.7,286047000.9,N
1581150855.5,286047000.8,N
1581150875.4,286047002.8,N
1581150895.2,286047002.5,N
1581150915.0,286047001.0,N
1581150915.9,286047001.0,N
1581150935.8,286046998.9,N
1581150955.6,286046998.8,N
1581150975.5,286046999.0,N
1581150995.3,286046999.3,N
1581151015.1,286046998.8,N
1581151035.9,286047000.0,N
1581151055.7,286047000.0,N
1581151075.6,286046999.0,N
1581151095.4,286046998.1,N
1581151115.2,286047000.5,N
1581151135.1,286046998.1,N
1581151136.0,286046998.1,N
1581151155.8,286047001.2,N
1581151175.7,286047002.5,N
1581151195.5,286047004.1,N
1581151215.3,286047000.1,N
1581151235.2,286047001.1,N
1581151255.9,286047000.8,N
1581151275.7,286046998.5,N
1581151295.6,286046999.2,N
1581151315.4,286046999.0,N
1581151335.3,286046998.1,N
1581151355.1,286046999.0,N
1581151356.0,286046999.0,N
1581151375.8,286046998.8,N
1581151395.7,286046999.3,N
1581151415.5,286046998.3,N
1581151435.3,286047000.3,N
1581151455.2,286047000.4,N
1581151475.0,286047001.2,N
1581151475.9,286047001.2,N
1581151495.8,286046998.8,N
1581151515.6,286046998.7,N
1581151535.4,286046996.8,N
1581151555.3,286046999.6,N
1581151575.1,286046996.6,N
1581151595.8,286047001.0,N
1581151615.7,286046998.2,N
1581151635.5,286047000.0,N
1581151655.4,286047002.7,N
1581151675.2,286047002.8,N
1581151695.0,286046999.7,N
1581151695.9,286046999.7,N
1581151715.8,286047002.8,N
1581151735.6,286047002.2,N
1581151755.5,286047000.1,N
1581151775.3,286047000.9,N
1581151795.1,286046998.4,N
1581151815.9,286046999.7,N
1581151835.7,286047004.1,N
1581151855.5,286047001.7,N
1581151875.4,286047002.2,N
1581151895.2,286047003.5,N
1581151915.1,286047005.6,N
1581151916.0,286047005.6,N
1581151935.8,286047003.7,N
1581151955.6,286047003.2,N
1581151975.5,286047003.4,N
1581151995.3,286047001.5,N
1581152015.2,286047001.9,N
1581152035.9,286047002.8,N
1581152055.7,286047004.2,N
1581152075.6,286047003.7,N
1581152095.4,286047002.1,N
1581152115.3,286047002.0,N
1581152135.1,286047002.2,N
1581152155.8,286047002.0,N
1581152175.7,286047001.7,N
1581152195.5,286046999.9,N
1581152215.3,286047001.9,N
1581152235.2,286047004.3,N
1581152255.0,286047002.1,N
1581152255.9,286047002.1,N
1581152275.8,286047001.3,N
1581152295.6,286047004.1,N
1581152315.4,286047003.1,N
1581152335.3,286047004.0,N
1581152355.1,286047002.1,N
1581152375.9,286046999.7,N
1581152395.7,286047001.9,N
